,,PA_Meas_PMT16A,,PR_Meas_QMR101_102,,RH_Meas_QMH101,,SR_Meas_QMS101,,TA_Meas_QMH101,,GenWind,,GenWind,
time,status,PA,status,PR,status,RH,status,SR,status,TA,status,DirAvg,status,SpdAvg,
2014-07-12, 07:48:04,VALID,918.482,VALID,0,VALID,96.1236,VALID,46.1997,VALID,19.5678,VALID,10,VALID,1.67813,
2014-07-12, 07:49:04,VALID,918.483,VALID,0,VALID,96.1694,VALID,53.9355,VALID,19.5873,VALID,13,VALID,0.950781,
2014-07-12, 07:50:04,VALID,918.48,VALID,0,VALID,96.2075,VALID,59.8447,VALID,19.6053,VALID,20,VALID,0.804297,
2014-07-12, 07:51:04,VALID,918.487,VALID,0,VALID,96.2075,VALID,64.8945,VALID,19.6248,VALID,30,VALID,0.796875,
2014-07-12, 07:52:04,VALID,918.507,VALID,0,VALID,96.2533,VALID,69.0847,VALID,19.6653,VALID,30,VALID,0.362891,
2014-07-12, 07:53:04,VALID,918.539,VALID,0,VALID,96.2304,VALID,72.4153,VALID,19.6443,VALID,34,VALID,1.01445,
2014-07-12, 07:54:04,VALID,918.544,VALID,0,VALID,96.238,VALID,77.7874,VALID,19.6638,VALID,4,VALID,0.435156,
2014-07-12, 07:55:04,VALID,918.579,VALID,0,VALID,96.177,VALID,83.2669,VALID,19.6638,VALID,15,VALID,1.21094,
2014-07-12, 07:56:04,VALID,918.603,VALID,0,VALID,96.1465,VALID,88.2092,VALID,19.6638,VALID,25,VALID,1.41328,
2014-07-12, 07:57:04,VALID,918.587,VALID,0,VALID,96.1541,VALID,91.8622,VALID,19.6833,VALID,11,VALID,1.79922,
2014-07-12, 07:58:04,VALID,918.617,VALID,0,VALID,96.1236,VALID,94.978,VALID,19.6623,VALID,5,VALID,1.00156,
2014-07-12, 07:59:04,VALID,918.596,VALID,0,VALID,96.0703,VALID,97.3417,VALID,19.6833,VALID,1,VALID,1.92891,
2014-07-12, 08:00:04,VALID,918.568,VALID,0,VALID,96.0017,VALID,95.3003,VALID,19.6833,VALID,13,VALID,2.04297,
2014-07-12, 08:01:04,VALID,918.598,VALID,0,VALID,95.9559,VALID,92.9366,VALID,19.7028,VALID,354,VALID,2.12148,
2014-07-12, 08:02:04,VALID,918.621,VALID,0,VALID,95.9636,VALID,99.1682,VALID,19.6833,VALID,19,VALID,1.8082,
2014-07-12, 08:03:04,VALID,918.592,VALID,0,VALID,95.9712,VALID,103.144,VALID,19.6623,VALID,301,VALID,1.3293,
2014-07-12, 08:04:04,VALID,918.584,VALID,0,VALID,95.8797,VALID,105.185,VALID,19.6833,VALID,344,VALID,1.16445,
2014-07-12, 08:05:04,VALID,918.641,VALID,0,VALID,95.9026,VALID,107.226,VALID,19.7613,VALID,6,VALID,1.36953,
2014-07-12, 08:06:04,VALID,918.635,VALID,0,VALID,95.895,VALID,108.193,VALID,19.7808,VALID,342,VALID,0.738672,
2014-07-12, 08:07:04,VALID,918.633,VALID,0,VALID,95.773,VALID,108.408,VALID,19.7613,VALID,354,VALID,1.02227,
2014-07-12, 08:08:04,VALID,918.628,VALID,0,VALID,95.7577,VALID,107.871,VALID,19.8003,VALID,8,VALID,1.43477,
2014-07-12, 08:09:04,VALID,918.593,VALID,0,VALID,95.7349,VALID,102.177,VALID,19.7988,VALID,4,VALID,1.31289,
2014-07-12, 08:10:04,VALID,918.601,VALID,0,VALID,95.6891,VALID,110.557,VALID,19.8393,VALID,359,VALID,1.2168,
2014-07-12, 08:11:04,VALID,918.602,VALID,0,VALID,95.6891,VALID,113.995,VALID,19.8393,VALID,15,VALID,1.21914,
2014-07-12, 08:12:04,VALID,918.594,VALID,0,VALID,95.7272,VALID,113.565,VALID,19.8393,VALID,24,VALID,1.3418,
2014-07-12, 08:13:04,VALID,918.607,VALID,0,VALID,95.7806,VALID,115.822,VALID,19.8588,VALID,22,VALID,0.941406,
2014-07-12, 08:14:04,VALID,918.641,VALID,0,VALID,95.8492,VALID,115.392,VALID,19.8978,VALID,7,VALID,1.39883,
2014-07-12, 08:15:04,VALID,918.634,VALID,0,VALID,95.8721,VALID,113.78,VALID,19.8978,VALID,26,VALID,1.18242,
2014-07-12, 08:16:04,VALID,918.622,VALID,0,VALID,95.8568,VALID,112.706,VALID,19.9173,VALID,15,VALID,1.175,
2014-07-12, 08:17:04,VALID,918.635,VALID,0,VALID,95.7044,VALID,109.483,VALID,19.8588,VALID,5,VALID,1.31211,
2014-07-12, 08:18:04,VALID,918.596,VALID,0,VALID,95.6586,VALID,109.375,VALID,19.8588,VALID,39,VALID,0.961719,
2014-07-12, 08:19:04,VALID,918.617,VALID,0,VALID,95.7044,VALID,109.59,VALID,19.8798,VALID,10,VALID,1.00234,
2014-07-12, 08:20:04,VALID,918.629,VALID,0,VALID,95.7958,VALID,107.763,VALID,19.9188,VALID,30,VALID,1.01719,
2014-07-12, 08:21:04,VALID,918.637,VALID,0,VALID,95.8187,VALID,108.838,VALID,19.9383,VALID,36,VALID,1.52305,
2014-07-12, 08:22:04,VALID,918.627,VALID,0,VALID,95.7806,VALID,111.631,VALID,19.9383,VALID,47,VALID,0.899609,
2014-07-12, 08:23:04,VALID,918.619,VALID,0,VALID,95.7654,VALID,111.631,VALID,19.9188,VALID,27,VALID,1.95977,
2014-07-12, 08:24:04,VALID,918.676,VALID,0,VALID,95.7349,VALID,111.202,VALID,19.9578,VALID,9,VALID,1.00156,
2014-07-12, 08:25:04,VALID,918.678,VALID,0,VALID,95.6662,VALID,111.524,VALID,19.9173,VALID,352,VALID,1.39844,
2014-07-12, 08:26:04,VALID,918.694,VALID,0,VALID,95.5138,VALID,111.739,VALID,19.8993,VALID,22,VALID,1.08047,
2014-07-12, 08:27:04,VALID,918.695,VALID,0,VALID,95.5443,VALID,112.169,VALID,19.9383,VALID,46,VALID,1.03867,
2014-07-12, 08:28:04,VALID,918.732,VALID,0,VALID,95.468,VALID,112.598,VALID,19.9383,VALID,28,VALID,1.27656,
2014-07-12, 08:29:04,VALID,918.696,VALID,0,VALID,95.3308,VALID,113.136,VALID,19.9173,VALID,43,VALID,1.33281,
2014-07-12, 08:30:04,VALID,918.691,VALID,0,VALID,95.0792,VALID,114.64,VALID,19.9188,VALID,56,VALID,1.74844,
2014-07-12, 08:31:04,VALID,918.73,VALID,0,VALID,95.0488,VALID,116.466,VALID,19.9173,VALID,57,VALID,1.45078,
2014-07-12, 08:32:04,VALID,918.742,VALID,0,VALID,94.9954,VALID,118.615,VALID,19.9578,VALID,37,VALID,1.44062,
2014-07-12, 08:33:04,VALID,918.749,VALID,0,VALID,94.5609,VALID,121.086,VALID,19.9578,VALID,46,VALID,1.42578,
2014-07-12, 08:34:04,VALID,918.745,VALID,0,VALID,94.6523,VALID,123.88,VALID,19.9758,VALID,30,VALID,0.922266,
2014-07-12, 08:35:04,VALID,918.77,VALID,0,VALID,94.7514,VALID,126.888,VALID,20.0343,VALID,16,VALID,1.18086,
2014-07-12, 08:36:04,VALID,918.779,VALID,0,VALID,94.1416,VALID,129.896,VALID,20.0343,VALID,58,VALID,1.19961,
2014-07-12, 08:37:04,VALID,918.757,VALID,0,VALID,94.0806,VALID,133.012,VALID,20.0928,VALID,58,VALID,1.13125,
2014-07-12, 08:38:04,VALID,918.746,VALID,0,VALID,93.2725,VALID,136.128,VALID,20.0928,VALID,44,VALID,0.792188,
2014-07-12, 08:39:04,VALID,918.727,VALID,0,VALID,92.9142,VALID,139.244,VALID,20.1513,VALID,69,VALID,0.877734,
2014-07-12, 08:40:04,VALID,918.769,VALID,0,VALID,93.0972,VALID,142.36,VALID,20.2083,VALID,52,VALID,0.879297,
2014-07-12, 08:41:04,VALID,918.772,VALID,0,VALID,92.6016,VALID,145.798,VALID,20.2083,VALID,53,VALID,1.11328,
2014-07-12, 08:42:04,VALID,918.779,VALID,0,VALID,92.7312,VALID,149.666,VALID,20.2473,VALID,50,VALID,0.566406,
2014-07-12, 08:43:04,VALID,918.772,VALID,0,VALID,92.8608,VALID,153.856,VALID,20.3253,VALID,65,VALID,0.971484,
2014-07-12, 08:44:04,VALID,918.751,VALID,0,VALID,92.533,VALID,158.261,VALID,20.3643,VALID,61,VALID,0.976563,
2014-07-12, 08:45:04,VALID,918.775,VALID,0,VALID,91.9689,VALID,162.558,VALID,20.3643,VALID,63,VALID,0.788281,
2014-07-12, 08:46:04,VALID,918.819,VALID,0,VALID,91.3057,VALID,166.211,VALID,20.3838,VALID,81,VALID,0.642969,
2014-07-12, 08:47:04,VALID,918.83,VALID,0,VALID,91.1837,VALID,168.79,VALID,20.4033,VALID,44,VALID,0.801953,
2014-07-12, 08:48:04,VALID,918.867,VALID,0,VALID,91.2599,VALID,169.65,VALID,20.4634,VALID,44,VALID,0.382422,
2014-07-12, 08:49:04,VALID,918.861,VALID,0,VALID,91.3666,VALID,169.542,VALID,20.5219,VALID,46,VALID,0.291016,
2014-07-12, 08:50:04,VALID,918.877,VALID,0,VALID,91.3285,VALID,169.22,VALID,20.5999,VALID,45,VALID,0.252734,
2014-07-12, 08:51:04,VALID,918.905,VALID,0,VALID,90.9016,VALID,167.931,VALID,20.639,VALID,53,VALID,0.648828,
2014-07-12, 08:52:04,VALID,918.88,VALID,0,VALID,89.8038,VALID,166.856,VALID,20.639,VALID,114,VALID,0.978516,
2014-07-12, 08:53:04,VALID,918.86,VALID,0,VALID,90.6272,VALID,166.641,VALID,20.6585,VALID,115,VALID,1.20547,
2014-07-12, 08:54:04,VALID,918.873,VALID,0,VALID,91.1227,VALID,167.608,VALID,20.6194,VALID,127,VALID,0.935547,
2014-07-12, 08:55:04,VALID,918.855,VALID,0,VALID,91.9918,VALID,169.65,VALID,20.6585,VALID,143,VALID,0.275781,
2014-07-12, 08:56:04,VALID,918.882,VALID,0,VALID,92.594,VALID,172.765,VALID,20.7349,VALID,124,VALID,0.728125,
2014-07-12, 08:57:04,VALID,918.915,VALID,0,VALID,92.0223,VALID,176.203,VALID,20.6975,VALID,130,VALID,0.803125,
2014-07-12, 08:58:04,VALID,918.908,VALID,0,VALID,92.1595,VALID,178.782,VALID,20.756,VALID,129,VALID,0.319531,
2014-07-12, 08:59:04,VALID,918.905,VALID,0,VALID,92.1061,VALID,182.972,VALID,20.795,VALID,128,VALID,0.25625,
2014-07-12, 09:00:04,VALID,918.925,VALID,0,VALID,92.1976,VALID,185.551,VALID,20.8535,VALID,131,VALID,0.408203,
2014-07-12, 09:01:04,VALID,918.919,VALID,0,VALID,92.0299,VALID,188.882,VALID,20.8714,VALID,134,VALID,0.819531,
2014-07-12, 09:02:04,VALID,918.907,VALID,0,VALID,91.7478,VALID,189.634,VALID,20.891,VALID,149,VALID,0.867578,
2014-07-12, 09:03:04,VALID,918.885,VALID,0,VALID,91.481,VALID,190.601,VALID,20.8925,VALID,126,VALID,0.584375,
2014-07-12, 09:04:04,VALID,918.888,VALID,0,VALID,91.664,VALID,191.782,VALID,20.9316,VALID,150,VALID,0.603906,
2014-07-12, 09:05:04,VALID,918.902,VALID,0,VALID,91.5344,VALID,193.609,VALID,20.9316,VALID,137,VALID,0.80625,
2014-07-12, 09:06:04,VALID,918.891,VALID,0,VALID,91.5344,VALID,196.51,VALID,20.9316,VALID,131,VALID,1.23164,
2014-07-12, 09:07:04,VALID,918.866,VALID,0,VALID,90.9321,VALID,200.055,VALID,20.8535,VALID,133,VALID,1.04141,
2014-07-12, 09:08:04,VALID,918.851,VALID,0,VALID,91.0541,VALID,204.138,VALID,20.8519,VALID,150,VALID,0.964453,
2014-07-12, 09:09:04,VALID,918.84,VALID,0,VALID,90.833,VALID,208.114,VALID,20.8535,VALID,145,VALID,1.22773,
2014-07-12, 09:10:04,VALID,918.856,VALID,0,VALID,91.1837,VALID,211.767,VALID,20.8129,VALID,141,VALID,1.14922,
2014-07-12, 09:11:04,VALID,918.843,VALID,0,VALID,91.1608,VALID,216.601,VALID,20.8129,VALID,116,VALID,0.764453,
2014-07-12, 09:12:04,VALID,918.846,VALID,0,VALID,91.2218,VALID,221.114,VALID,20.8519,VALID,114,VALID,1.10859,
2014-07-12, 09:13:04,VALID,918.827,VALID,0,VALID,90.711,VALID,225.626,VALID,20.8519,VALID,114,VALID,0.647656,
2014-07-12, 09:14:04,VALID,918.861,VALID,0,VALID,90.3832,VALID,229.709,VALID,20.912,VALID,99,VALID,0.693359,
2014-07-12, 09:15:04,VALID,918.838,VALID,0,VALID,90.1012,VALID,232.61,VALID,20.9105,VALID,105,VALID,0.346094,
2014-07-12, 09:16:04,VALID,918.824,VALID,0,VALID,90.1926,VALID,234.866,VALID,20.969,VALID,98,VALID,0.828516,
2014-07-12, 09:17:04,VALID,918.849,VALID,0,VALID,89.9106,VALID,237.123,VALID,21.0275,VALID,123,VALID,1.2457,
2014-07-12, 09:18:04,VALID,918.826,VALID,0,VALID,89.3998,VALID,238.842,VALID,21.047,VALID,99,VALID,0.983594,
2014-07-12, 09:19:04,VALID,918.775,VALID,0,VALID,89.0644,VALID,239.916,VALID,21.086,VALID,101,VALID,0.658984,
2014-07-12, 09:20:04,VALID,918.798,VALID,0,VALID,88.2258,VALID,240.776,VALID,21.086,VALID,101,VALID,0.849219,
2014-07-12, 09:21:04,VALID,918.788,VALID,0,VALID,89.0263,VALID,241.098,VALID,21.164,VALID,118,VALID,1.01719,
2014-07-12, 09:22:04,VALID,918.748,VALID,0,VALID,88.6146,VALID,241.098,VALID,21.164,VALID,128,VALID,0.958984,
2014-07-12, 09:23:04,VALID,918.77,VALID,0,VALID,87.5626,VALID,240.776,VALID,21.1445,VALID,131,VALID,1.0707,
2014-07-12, 09:24:04,VALID,918.716,VALID,0,VALID,87.6617,VALID,240.883,VALID,21.164,VALID,129,VALID,0.977734,
2014-07-12, 09:25:04,VALID,918.743,VALID,0,VALID,88.3554,VALID,240.776,VALID,21.2421,VALID,181,VALID,1.05391,
2014-07-12, 09:26:04,VALID,918.758,VALID,0,VALID,88.1572,VALID,240.668,VALID,21.2811,VALID,164,VALID,0.583203,
2014-07-12, 09:27:04,VALID,918.717,VALID,0,VALID,87.9513,VALID,240.883,VALID,21.299,VALID,148,VALID,0.899219,
2014-07-12, 09:28:04,VALID,918.733,VALID,0,VALID,87.5778,VALID,241.85,VALID,21.3396,VALID,151,VALID,0.830078,
2014-07-12, 09:29:04,VALID,918.752,VALID,0,VALID,87.6235,VALID,243.999,VALID,21.3981,VALID,159,VALID,0.223438,
2014-07-12, 09:30:04,VALID,918.765,VALID,0,VALID,87.3034,VALID,245.825,VALID,21.4957,VALID,159,VALID,0,
2014-07-12, 09:31:04,VALID,918.782,VALID,0,VALID,86.7087,VALID,246.9,VALID,21.5932,VALID,159,VALID,0.459766,
2014-07-12, 09:32:04,VALID,918.798,VALID,0,VALID,86.724,VALID,247.867,VALID,21.7298,VALID,159,VALID,0,
2014-07-12, 09:33:04,VALID,918.782,VALID,0,VALID,85.0545,VALID,249.478,VALID,21.8664,VALID,159,VALID,0.0515625,
2014-07-12, 09:34:04,VALID,918.803,VALID,0,VALID,84.3531,VALID,253.131,VALID,21.9835,VALID,159,VALID,0.494922,
2014-07-12, 09:35:04,VALID,918.783,VALID,0,VALID,84.0405,VALID,256.569,VALID,22.0598,VALID,42,VALID,1.10469,
2014-07-12, 09:36:04,VALID,918.792,VALID,0,VALID,83.7661,VALID,259.041,VALID,22.1379,VALID,7,VALID,1.17813,
2014-07-12, 09:37:04,VALID,918.789,VALID,0,VALID,83.0647,VALID,261.404,VALID,22.2371,VALID,6,VALID,0.630859,
2014-07-12, 09:38:04,VALID,918.782,VALID,0,VALID,82.5235,VALID,262.694,VALID,22.3152,VALID,6,VALID,1.0418,
2014-07-12, 09:39:04,VALID,918.782,VALID,0,VALID,80.0611,VALID,265.165,VALID,22.3135,VALID,59,VALID,1.37188,
2014-07-12, 09:40:04,VALID,918.779,VALID,0,VALID,80.3813,VALID,270.859,VALID,22.2354,VALID,60,VALID,1.59844,
2014-07-12, 09:41:04,VALID,918.739,VALID,0,VALID,82.3939,VALID,279.132,VALID,22.2176,VALID,56,VALID,1.34648,
2014-07-12, 09:42:04,VALID,918.71,VALID,0,VALID,84.3607,VALID,287.727,VALID,22.2176,VALID,23,VALID,0.926953,
2014-07-12, 09:43:04,VALID,918.714,VALID,0,VALID,83.1334,VALID,295.678,VALID,22.2159,VALID,37,VALID,1.94258,
2014-07-12, 09:44:04,VALID,918.734,VALID,0,VALID,83.0419,VALID,302.339,VALID,22.1769,VALID,24,VALID,1.33242,
2014-07-12, 09:45:04,VALID,918.73,VALID,0,VALID,82.8665,VALID,306.207,VALID,22.1981,VALID,20,VALID,1.28711,
2014-07-12, 09:46:04,VALID,918.716,VALID,0,VALID,81.1818,VALID,305.348,VALID,22.2371,VALID,15,VALID,1.46445,
2014-07-12, 09:47:04,VALID,918.733,VALID,0,VALID,78.4678,VALID,301.265,VALID,22.2567,VALID,59,VALID,1.56484,
2014-07-12, 09:48:04,VALID,918.73,VALID,0,VALID,77.9189,VALID,295.248,VALID,22.2371,VALID,55,VALID,1.39023,
2014-07-12, 09:49:04,VALID,918.708,VALID,0,VALID,79.6799,VALID,292.133,VALID,22.2159,VALID,31,VALID,1.53164,
2014-07-12, 09:50:04,VALID,918.706,VALID,0,VALID,78.3306,VALID,294.066,VALID,22.2957,VALID,27,VALID,1.70664,
2014-07-12, 09:51:04,VALID,918.718,VALID,0,VALID,78.2467,VALID,298.794,VALID,22.2957,VALID,28,VALID,1.69492,
2014-07-12, 09:52:04,VALID,918.741,VALID,0,VALID,79.0015,VALID,304.273,VALID,22.3542,VALID,5,VALID,1.11133,
2014-07-12, 09:53:04,VALID,918.754,VALID,0,VALID,81.9898,VALID,311.15,VALID,22.4306,VALID,349,VALID,1.42148,
2014-07-12, 09:54:04,VALID,918.74,VALID,0,VALID,83.7127,VALID,317.596,VALID,22.5103,VALID,337,VALID,0.255078,
2014-07-12, 09:55:04,VALID,918.726,VALID,0,VALID,84.5818,VALID,322.753,VALID,22.647,VALID,321,VALID,0.624609,
2014-07-12, 09:56:04,VALID,918.728,VALID,0,VALID,85.4432,VALID,328.018,VALID,22.8031,VALID,31,VALID,0.676562,
2014-07-12, 09:57:04,VALID,918.743,VALID,0,VALID,83.2553,VALID,334.787,VALID,22.8812,VALID,290,VALID,0.389062,
2014-07-12, 09:58:04,VALID,918.762,VALID,0,VALID,82.4396,VALID,338.547,VALID,22.977,VALID,271,VALID,0.790625,
2014-07-12, 09:59:04,VALID,918.751,VALID,0,VALID,76.9431,VALID,334.142,VALID,22.9202,VALID,228,VALID,1.59258,
2014-07-12, 10:00:04,VALID,918.757,VALID,0,VALID,80.427,VALID,314.48,VALID,22.9592,VALID,331,VALID,1.05781,
2014-07-12, 10:01:04,VALID,918.737,VALID,0,VALID,79.253,VALID,295.678,VALID,22.9575,VALID,21,VALID,1.37812,
2014-07-12, 10:02:04,VALID,918.76,VALID,0,VALID,79.1768,VALID,277.843,VALID,22.9787,VALID,20,VALID,1.74102,
2014-07-12, 10:03:04,VALID,918.766,VALID,0,VALID,78.2772,VALID,256.355,VALID,23.0178,VALID,321,VALID,0.742969,
2014-07-12, 10:04:04,VALID,918.824,VALID,0,VALID,78.5136,VALID,247.759,VALID,22.977,VALID,320,VALID,0.0503906,
2014-07-12, 10:05:04,VALID,918.782,VALID,0,VALID,76.7068,VALID,251.09,VALID,23.016,VALID,311,VALID,0.708203,
2014-07-12, 10:06:04,VALID,918.755,VALID,0,VALID,72.6588,VALID,253.346,VALID,22.938,VALID,247,VALID,1.71914,
2014-07-12, 10:07:04,VALID,918.757,VALID,0,VALID,75.5023,VALID,263.661,VALID,22.7445,VALID,250,VALID,1.47227,
2014-07-12, 10:08:04,VALID,918.76,VALID,0,VALID,77.1261,VALID,289.769,VALID,22.6843,VALID,325,VALID,0.991406,
2014-07-12, 10:09:04,VALID,918.749,VALID,0,VALID,77.2709,VALID,291.81,VALID,22.6257,VALID,312,VALID,1.60117,
2014-07-12, 10:10:04,VALID,918.706,VALID,0,VALID,78.3992,VALID,281.281,VALID,22.585,VALID,8,VALID,1.08359,
2014-07-12, 10:11:04,VALID,918.716,VALID,0,VALID,79.0243,VALID,285.149,VALID,22.7038,VALID,13,VALID,0.364453,
2014-07-12, 10:12:04,VALID,918.693,VALID,0,VALID,79.619,VALID,299.331,VALID,22.7996,VALID,351,VALID,0.986328,
2014-07-12, 10:13:04,VALID,918.655,VALID,0,VALID,77.6902,VALID,351.225,VALID,22.9185,VALID,276,VALID,1.08828,
2014-07-12, 10:14:04,VALID,918.656,VALID,0,VALID,79.0624,VALID,403.656,VALID,22.9185,VALID,344,VALID,1.35195,
2014-07-12, 10:15:04,VALID,918.612,VALID,0,VALID,79.1234,VALID,395.813,VALID,23.016,VALID,12,VALID,1.33867,
2014-07-12, 10:16:04,VALID,918.645,VALID,0,VALID,76.1884,VALID,409.995,VALID,23.1331,VALID,281,VALID,0.955859,
2014-07-12, 10:17:04,VALID,918.639,VALID,0,VALID,76.379,VALID,450.393,VALID,23.0746,VALID,273,VALID,0.61875,
2014-07-12, 10:18:04,VALID,918.606,VALID,0,VALID,75.4566,VALID,429.013,VALID,23.0746,VALID,312,VALID,1.12109,
2014-07-12, 10:19:04,VALID,918.568,VALID,0,VALID,77.8122,VALID,436.104,VALID,23.1331,VALID,245,VALID,1.14453,
2014-07-12, 10:20:04,VALID,918.594,VALID,0,VALID,77.7665,VALID,505.725,VALID,23.2502,VALID,22,VALID,0.972656,
2014-07-12, 10:21:04,VALID,918.591,VALID,0,VALID,76.7754,VALID,646.903,VALID,23.3674,VALID,334,VALID,0.3375,
2014-07-12, 10:22:04,VALID,918.632,VALID,0,VALID,77.2252,VALID,579.215,VALID,23.4437,VALID,255,VALID,0.645312,
2014-07-12, 10:23:04,VALID,918.61,VALID,0,VALID,74.5113,VALID,431.376,VALID,23.5608,VALID,323,VALID,0.591797,
2014-07-12, 10:24:04,VALID,918.627,VALID,0,VALID,78.727,VALID,412.037,VALID,23.6779,VALID,26,VALID,1.82305,
2014-07-12, 10:25:04,VALID,918.603,VALID,0,VALID,75.8377,VALID,431.699,VALID,23.7364,VALID,13,VALID,1.46641,
2014-07-12, 10:26:04,VALID,918.536,VALID,0,VALID,71.2866,VALID,428.046,VALID,23.6388,VALID,307,VALID,2.25742,
2014-07-12, 10:27:04,VALID,918.497,VALID,0,VALID,74.618,VALID,441.476,VALID,23.504,VALID,359,VALID,1.34727,
2014-07-12, 10:28:04,VALID,918.514,VALID,0,VALID,73.8175,VALID,589.207,VALID,23.465,VALID,346,VALID,1.0293,
2014-07-12, 10:29:04,VALID,918.53,VALID,0,VALID,75.5328,VALID,468.551,VALID,23.5821,VALID,10,VALID,0.986328,
2014-07-12, 10:30:04,VALID,918.542,VALID,0,VALID,73.8861,VALID,747.253,VALID,23.7578,VALID,11,VALID,1.01211,
2014-07-12, 10:31:04,VALID,918.546,VALID,0,VALID,74.5265,VALID,455.55,VALID,23.7968,VALID,27,VALID,1.72344,
2014-07-12, 10:32:04,VALID,918.537,VALID,0,VALID,74.9229,VALID,434.922,VALID,23.9335,VALID,17,VALID,1.31523,
2014-07-12, 10:33:04,VALID,918.505,VALID,0,VALID,72.392,VALID,338.44,VALID,24.0701,VALID,318,VALID,0.457422,
2014-07-12, 10:34:04,VALID,918.548,VALID,0,VALID,73.5965,VALID,389.797,VALID,24.1677,VALID,322,VALID,0.597266,
2014-07-12, 10:35:04,VALID,918.524,VALID,0,VALID,73.6346,VALID,654.209,VALID,24.2049,VALID,60,VALID,1.64297,
2014-07-12, 10:36:04,VALID,918.446,VALID,0,VALID,70.6157,VALID,585.339,VALID,23.9512,VALID,270,VALID,1.68789,
2014-07-12, 10:37:04,VALID,918.464,VALID,0,VALID,72.9103,VALID,551.925,VALID,23.7968,VALID,269,VALID,1.07539,
2014-07-12, 10:38:04,VALID,918.449,VALID,0,VALID,74.1682,VALID,636.052,VALID,23.7382,VALID,8,VALID,1.68711,
2014-07-12, 10:39:04,VALID,918.446,VALID,0,VALID,73.8252,VALID,768.741,VALID,23.598,VALID,263,VALID,1.44648,
2014-07-12, 10:40:04,VALID,918.474,VALID,0,VALID,73.5355,VALID,772.717,VALID,23.5803,VALID,268,VALID,1.25469,
2014-07-12, 10:41:04,VALID,918.455,VALID,0,VALID,74.8238,VALID,572.661,VALID,23.6388,VALID,266,VALID,0.831641,
2014-07-12, 10:42:04,VALID,918.476,VALID,0,VALID,75.4642,VALID,766.485,VALID,23.6974,VALID,329,VALID,1.44883,
2014-07-12, 10:43:04,VALID,918.491,VALID,0,VALID,75.6777,VALID,652.812,VALID,23.7755,VALID,336,VALID,1.29727,
2014-07-12, 10:44:04,VALID,918.482,VALID,0,VALID,72.8494,VALID,516.899,VALID,23.9335,VALID,107,VALID,0.860547,
2014-07-12, 10:45:04,VALID,918.491,VALID,0,VALID,72.9485,VALID,678.706,VALID,24.086,VALID,181,VALID,0.344141,
2014-07-12, 10:46:04,VALID,918.503,VALID,0,VALID,73.4135,VALID,731.459,VALID,24.3221,VALID,234,VALID,0.825391,
2014-07-12, 10:47:04,VALID,918.485,VALID,0,VALID,72.8417,VALID,754.989,VALID,24.5173,VALID,25,VALID,0.93125,
2014-07-12, 10:48:04,VALID,918.489,VALID,0,VALID,73.2839,VALID,476.501,VALID,24.8316,VALID,5,VALID,0.708203,
2014-07-12, 10:49:04,VALID,918.464,VALID,0,VALID,70.2803,VALID,479.08,VALID,25.1441,VALID,307,VALID,0.69375,
2014-07-12, 10:50:04,VALID,918.442,VALID,0,VALID,69.3502,VALID,471.882,VALID,25.2398,VALID,6,VALID,1.45664,
2014-07-12, 10:51:04,VALID,918.522,VALID,0,VALID,69.1596,VALID,583.728,VALID,25.3198,VALID,14,VALID,1.14766,
2014-07-12, 10:52:04,VALID,918.539,VALID,0,VALID,69.3731,VALID,464.468,VALID,25.3784,VALID,356,VALID,0.517969,
2014-07-12, 10:53:04,VALID,918.587,VALID,0,VALID,68.5955,VALID,476.716,VALID,25.396,VALID,26,VALID,0.910156,
2014-07-12, 10:54:04,VALID,918.58,VALID,0,VALID,70.0135,VALID,424.715,VALID,25.4351,VALID,6,VALID,1.24531,
2014-07-12, 10:55:04,VALID,918.627,VALID,0,VALID,68.1686,VALID,451.145,VALID,25.3374,VALID,232,VALID,1.30938,
2014-07-12, 10:56:04,VALID,918.494,VALID,0,VALID,70.5242,VALID,533.875,VALID,25.064,VALID,316,VALID,1.47344,
2014-07-12, 10:57:04,VALID,918.604,VALID,0,VALID,69.7238,VALID,578.571,VALID,24.9469,VALID,355,VALID,0.776953,
2014-07-12, 10:58:04,VALID,918.487,VALID,0,VALID,71.8126,VALID,644.539,VALID,24.7516,VALID,306,VALID,1.00352,
2014-07-12, 10:59:04,VALID,918.564,VALID,0,VALID,72.3005,VALID,482.733,VALID,24.6949,VALID,259,VALID,0.876172,
2014-07-12, 11:00:04,VALID,918.53,VALID,0,VALID,71.7745,VALID,441.368,VALID,24.693,VALID,257,VALID,0.990234,
2014-07-12, 11:01:04,VALID,918.569,VALID,0,VALID,72.918,VALID,416.979,VALID,24.7321,VALID,285,VALID,0.775781,
2014-07-12, 11:02:04,VALID,918.493,VALID,0,VALID,70.57,VALID,410.103,VALID,24.7126,VALID,219,VALID,1.64805,
2014-07-12, 11:03:04,VALID,918.574,VALID,0,VALID,71.6601,VALID,409.028,VALID,24.4783,VALID,303,VALID,1.33047,
2014-07-12, 11:04:04,VALID,918.574,VALID,0,VALID,71.6067,VALID,395.276,VALID,24.3221,VALID,259,VALID,0.851953,
2014-07-12, 11:05:04,VALID,918.555,VALID,0,VALID,72.8417,VALID,353.804,VALID,24.3416,VALID,80,VALID,0.895703,
2014-07-12, 11:06:04,VALID,918.536,VALID,0,VALID,73.8938,VALID,333.712,VALID,24.4002,VALID,48,VALID,1.95,
2014-07-12, 11:07:04,VALID,918.591,VALID,0,VALID,72.8646,VALID,323.29,VALID,24.5173,VALID,360,VALID,1.44844,
2014-07-12, 11:08:04,VALID,918.563,VALID,0,VALID,71.7821,VALID,324.043,VALID,24.5368,VALID,44,VALID,2.53945,
2014-07-12, 11:09:04,VALID,918.573,VALID,0,VALID,71.1646,VALID,325.332,VALID,24.4002,VALID,31,VALID,1.61563,
2014-07-12, 11:10:04,VALID,918.646,VALID,0,VALID,73.7794,VALID,330.059,VALID,24.3221,VALID,350,VALID,1.32969,
2014-07-12, 11:11:04,VALID,918.603,VALID,0,VALID,72.3538,VALID,356.06,VALID,24.1659,VALID,345,VALID,1.33789,
2014-07-12, 11:12:04,VALID,918.62,VALID,0,VALID,72.7045,VALID,355.738,VALID,24.0665,VALID,321,VALID,1.34492,
2014-07-12, 11:13:04,VALID,918.619,VALID,0,VALID,72.7426,VALID,342.2,VALID,24.0097,VALID,3,VALID,2.01875,
2014-07-12, 11:14:04,VALID,918.612,VALID,0,VALID,73.6651,VALID,320.604,VALID,23.9707,VALID,344,VALID,1.0832,
2014-07-12, 11:15:04,VALID,918.6,VALID,0,VALID,73.8099,VALID,302.984,VALID,24.0097,VALID,254,VALID,2.42148,
2014-07-12, 11:16:04,VALID,918.688,VALID,0,VALID,74.4503,VALID,301.158,VALID,24.0292,VALID,76,VALID,1.18906,
2014-07-12, 11:17:04,VALID,918.522,VALID,0,VALID,72.4987,VALID,323.398,VALID,23.9902,VALID,28,VALID,2.09844,
2014-07-12, 11:18:04,VALID,918.612,VALID,0,VALID,72.6512,VALID,354.878,VALID,23.9316,VALID,246,VALID,1.68633,
2014-07-12, 11:19:04,VALID,918.573,VALID,0,VALID,73.8861,VALID,384.747,VALID,23.8145,VALID,341,VALID,0.988672,
2014-07-12, 11:20:04,VALID,918.626,VALID,0,VALID,76.6458,VALID,388.937,VALID,23.9121,VALID,10,VALID,1.77578,
2014-07-12, 11:21:04,VALID,918.629,VALID,0,VALID,72.3996,VALID,331.671,VALID,24.0292,VALID,350,VALID,0.5875,
2014-07-12, 11:22:04,VALID,918.622,VALID,0,VALID,73.505,VALID,297.505,VALID,24.0683,VALID,210,VALID,1.37695,